This is the latest recevied weather packets stored in our database for station/object W4OCD. If no packets are shown the sender has not sent any weather packets the latest 10 day(s).
| Time | Temp. | Humidity | Pressure | Rain* | Wind** | Luminosity | Snow |
|---|---|---|---|---|---|---|---|
| 1777649531 | 15.56° C | 91% | 1015.4 hPa | 0 mm | - | 88 W/m² | - |
| 1777649227 | 15° C | 91% | 1015.2 hPa | 0 mm | - | 93 W/m² | - |
| 1777648924 | 15° C | 91% | 1015.1 hPa | 0 mm | - | 88 W/m² | - |
| 1777648622 | 15° C | 90% | 1015.2 hPa | 0 mm | - | 80 W/m² | - |
| 1777648318 | 15° C | 91% | 1015.1 hPa | 0 mm | - | 113 W/m² | - |
| 1777648014 | 14.44° C | 90% | 1014.8 hPa | 0 mm | - | 99 W/m² | - |
| 1777647711 | 14.44° C | 90% | 1014.8 hPa | 0 mm | - | 81 W/m² | - |
| 1777647407 | 14.44° C | 90% | 1015 hPa | 0 mm | - | 81 W/m² | - |
| 1777646496 | 14.44° C | 92% | 1014.9 hPa | 0 mm | - | 49 W/m² | - |
| 1777646192 | 14.44° C | 92% | 1014.7 hPa | 0 mm | - | 55 W/m² | - |
| 1777645890 | 14.44° C | 92% | 1014.8 hPa | 0 mm | - | 87 W/m² | - |
| 1777645587 | 14.44° C | 92% | 1014.4 hPa | 0 mm | - | 65 W/m² | - |
| 1777645283 | 13.89° C | 92% | 1014.5 hPa | 0 mm | - | 75 W/m² | - |
| 1777644979 | 13.89° C | 93% | 1014.6 hPa | 0 mm | - | 58 W/m² | - |
| 1777644677 | 13.89° C | 93% | 1014.5 hPa | 0 mm | - | 47 W/m² | - |
| 1777644373 | 13.89° C | 93% | 1014.7 hPa | 0 mm | - | 58 W/m² | - |
| 1777644070 | 13.89° C | 93% | 1014.4 hPa | 0 mm | - | 71 W/m² | - |
| 1777643766 | 13.89° C | 93% | 1014.5 hPa | 0 mm | - | 82 W/m² | - |
| 1777643160 | 13.33° C | 94% | 1014.3 hPa | 0 mm | - | 57 W/m² | - |
| 1777642856 | 13.33° C | 94% | 1014.2 hPa | 0 mm | - | 77 W/m² | - |
| 1777642554 | 13.33° C | 95% | 1014.1 hPa | 0 mm | - | 62 W/m² | - |
| 1777642250 | 13.33° C | 95% | 1014.1 hPa | 0 mm | - | 55 W/m² | - |
| 1777641947 | 13.33° C | 95% | 1014.2 hPa | 0 mm | - | 43 W/m² | - |
| 1777641643 | 13.33° C | 96% | 1014 hPa | 0 mm | - | 40 W/m² | - |
| 1777641338 | 13.33° C | 96% | 1014 hPa | 0 mm | - | 42 W/m² | - |
* Rain latest hour (hover to see other rain measurements)
** Current wind speed in m/s (hover to see current wind gust speed)